GW4997 Weather Reports


Display with metric or nautical units.
time (UTC)temp
F
wind
direction
speed
MPH
gust
MPH
rain 1hr
in
rain 24hr
in
rain mn
in
humidity
%
barometer
mb
20260505022520 58 167 0.0 1.0 0.00 0.00 0.00 73 1011.2
20260505021520 58 193 0.0 2.0 0.00 0.00 0.00 72 1011.3
20260505020517 59 190 1.0 3.0 0.00 0.00 0.00 72 1011.2
20260505015517 59 201 0.0 3.0 0.00 0.00 0.00 71 1011.2
20260505014521 59 190 0.0 3.0 0.00 0.00 0.00 70 1011.2
20260505013521 60 194 1.0 3.0 0.00 0.00 0.00 70 1011.1
20260505012518 60 184 0.0 3.0 0.00 0.00 0.00 69 1011.1
20260505011518 61 168 1.0 3.0 0.00 0.00 0.00 67 1010.9
20260505010519 61 185 1.0 3.0 0.00 0.00 0.00 66 1010.8
20260505005519 62 188 1.0 3.0 0.00 0.00 0.00 63 1010.7
20260505004519 63 181 1.0 2.0 0.00 0.00 0.00 61 1010.6
20260505003520 63 172 1.0 5.0 0.00 0.00 0.00 59 1010.5
20260505002520 64 191 1.0 4.0 0.00 0.00 0.00 57 1010.3
20260505001519 65 186 1.0 2.0 0.00 0.00 0.00 55 1010.2
20260505000517 66 187 1.0 3.0 0.00 0.00 0.00 52 1010.0
20260504235516 67 210 0.0 2.0 0.00 0.00 0.00 48 1009.9
20260504234517 68 158 0.0 2.0 0.00 0.00 0.00 46 1009.8
20260504233520 69 0.0 0.0 0.00 0.00 0.00 44 1009.7
20260504232521 69 248 1.0 3.0 0.00 0.00 0.00 41 1009.6
20260504231520 70 245 1.0 3.0 0.00 0.00 0.00 40 1009.6
20260504230517 71 223 1.0 3.0 0.00 0.00 0.00 39 1009.6
20260504225518 71 249 1.0 4.0 0.00 0.00 0.00 38 1009.5
20260504224538 71 235 2.0 5.0 0.00 0.00 0.00 37 1009.4
20260504223518 72 241 3.0 5.0 0.00 0.00 0.00 38 1009.5
20260504222519 72 228 2.0 6.0 0.00 0.00 0.00 37 1009.5
20260504221539 72 245 2.0 5.0 0.00 0.00 0.00 36 1009.5
20260504220519 72 237 3.0 7.0 0.00 0.00 0.00 36 1009.5
20260504215522 73 217 3.0 7.0 0.00 0.00 0.00 35 1009.4
20260504214539 73 273 1.0 4.0 0.00 0.00 0.00 35 1009.4
20260504213520 73 238 2.0 6.0 0.00 0.00 0.00 35 1009.3
20260504212520 74 203 3.0 9.0 0.00 0.00 0.00 35 1009.3
20260504211520 74 248 2.0 5.0 0.00 0.00 0.00 35 1009.4
20260504210517 74 242 2.0 4.0 0.00 0.00 0.00 35 1009.4
20260504205517 74 286 3.0 6.0 0.00 0.00 0.00 36 1009.3
20260504204541 74 209 2.0 6.0 0.00 0.00 0.00 35 1009.3
20260504203521 74 244 1.0 6.0 0.00 0.00 0.00 35 1009.2
20260504202518 74 183 2.0 7.0 0.00 0.00 0.00 35 1009.3
20260504201519 74 213 2.0 8.0 0.00 0.00 0.00 34 1009.4
20260504200518 74 241 2.0 4.0 0.00 0.00 0.00 35 1009.5
20260504195519 74 249 3.0 7.0 0.00 0.00 0.00 34 1009.4
20260504194516 75 235 2.0 5.0 0.00 0.00 0.00 34 1009.5
20260504193516 74 211 2.0 5.0 0.00 0.00 0.00 35 1009.7
20260504192519 74 252 3.0 6.0 0.00 0.00 0.00 35 1009.8
20260504191519 74 241 4.0 7.0 0.00 0.00 0.00 35 1009.9
20260504190520 74 262 2.0 5.0 0.00 0.00 0.00 36 1010.2
20260504185520 73 276 2.0 5.0 0.00 0.00 0.00 36 1010.3
20260504184537 73 240 3.0 7.0 0.00 0.00 0.00 36 1010.4
20260504183520 73 246 2.0 5.0 0.00 0.00 0.00 36 1010.6
20260504182520 73 238 3.0 5.0 0.00 0.00 0.00 35 1010.7
20260504181517 72 242 2.0 5.0 0.00 0.00 0.00 36 1010.9
20260504180638 72 232 3.0 7.0 0.00 0.00 0.00 36 1011.0
20260504175517 73 235 3.0 7.0 0.00 0.00 0.00 36 1011.1
20260504174521 72 261 2.0 7.0 0.00 0.00 0.00 37 1011.2
20260504173518 72 242 3.0 8.0 0.00 0.00 0.00 37 1011.3
20260504172518 72 261 2.0 6.0 0.00 0.00 0.00 38 1011.5
20260504171518 71 238 2.0 7.0 0.00 0.00 0.00 38 1011.7
20260504170539 71 268 2.0 7.0 0.00 0.00 0.00 38 1011.8
20260504150518 66 242 2.0 4.0 0.00 0.00 0.00 50 1013.3
20260504140559 62 251 3.0 5.0 0.00 0.00 0.00 54 1013.8
20260504130517 57 246 2.0 4.0 0.00 0.00 0.00 65 1014.4
20260504110519 40 197 0.0 1.0 0.00 0.00 0.00 89 1015.6
20260504100517 39 0.0 0.0 0.00 0.00 0.00 89 1015.6
20260504081519 39 0.0 0.0 0.00 0.00 0.00 85 1015.5
20260504080517 39 0.0 0.0 0.00 0.00 0.00 84 1015.4
20260504050520 42 0.0 0.0 0.00 0.00 0.00 78 1014.8
20260504045517 42 0.0 0.0 0.00 0.00 0.00 77 1014.7
20260504044517 42 0.0 0.0 0.00 0.00 0.00 73 1014.7
20260504043521 43 0.0 0.0 0.00 0.00 0.00 70 1014.6
20260504042520 43 0.0 0.0 0.00 0.00 0.00 70 1014.4
20260504041518 43 0.0 0.0 0.00 0.00 0.00 70 1014.3
20260504040518 43 0.0 0.0 0.00 0.00 0.00 69 1014.3
20260504035538 43 0.0 0.0 0.00 0.00 0.00 70 1014.2
20260504034518 43 0.0 0.0 0.00 0.00 0.00 72 1014.1
20260504033524 43 0.0 0.0 0.00 0.00 0.00 71 1014.1
20260504032600 43 0.0 0.0 0.00 0.00 0.00 68 1014.0
20260504031519 43 0.0 0.0 0.00 0.00 0.00 69 1014.0
20260504030519 44 0.0 0.0 0.00 0.00 0.00 72 1014.0
20260504025519 44 0.0 0.0 0.00 0.00 0.00 70 1014.0
20260504024516 44 0.0 0.0 0.00 0.00 0.00 66 1014.0
20260504023520 44 0.0 0.0 0.00 0.00 0.00 64 1014.0